Location: Bathsheba
(13.2167°N, 59.5167°W)
Time: 23:40:54
(UTC+00:00)

Intelsat 5-3 Rocket - Pass Details

Date: 18 September 2020
Orbit: 282 x 6112 km, 23.6° (Epoch: 20 October)

Event Time Altitude Azimuth Distance (km) Brightness Sun altitude
Rises 22:46:06 0° 296° (WNW) 2,504 7.1 -12.9°
Reaches altitude 10° 22:47:38 10° 299° (WNW) 1,870 6.1 -13.2°
Maximum altitude 22:51:42 67° 23° (NNE) 986 3.5 -14.2°
Enters shadow 22:58:14 20° 101° (ESE) 3,139 5.5 -15.8°
